Regional Weather Roundup
Issued by NWS

Home | Current Version | Previous Version | Text Only | Print | Product List | Glossary On
Versions: 1 2 3 4 5 6 7 8 9 10 11 12 13 14 15 16 17 18 19 20 21 22 23 24 25 26 27 28
000
ASUS42 KKEY 250010
RWRKEY

FLORIDA REGIONAL WEATHER ROUNDUP FOR THE FLORIDA KEYS
NATIONAL WEATHER SERVICE KEY WEST FLORIDA
800 PM EDT THU APR 24 2014

...SOUTH FLORIDA AND THE KEYS...

CITY           SKY/WX    TMP DP  RH WIND       PRES   REMARKS
FORT MYERS     CLEAR     75  64  68 SW9       29.96R
SW REGIONAL AP CLEAR     73  64  73 SW10      29.96S
NAPLES         CLEAR     75  66  73 SW7       29.96S
MIAMI          PTCLDY    79  68  69 SE10      29.96R
WEST KENDALL   MOCLDY    82  66  58 S8        29.96R
HOMESTEAD      CLEAR     77  68  73 S5        29.96S
MARATHON       CLEAR     79  67  66 E3        29.96S
BOCA CHICA NAS PTCLDY    77  69  76 SE6       29.96R
KEY WEST INTL  CLEAR     78  69  73 E7        29.96S

...INTERNATIONAL WEATHER...

CITY           SKY/WX    TMP DP  RH WIND       PRES   REMARKS
NASSAU BAHAMAS NOT AVBL
CANCUN MEXICO  PTCLDY    81  72  74 SE9       29.91S
COZUMEL MEXICO PTCLDY    79  70  73 SE8       29.91S

ADJACENT COASTAL WATERS...

STATION/POSITION TIME  SKY/WX   TEMP    WIND        PRES    WAVE
                                AIR SEA DIR/SP/G            HT/PER
                 (UTC)          (F)     (DEG/KT/KT) (MB)    (FT/S)
PULASKI SHOAL LI NOT AVBL
SAND KEY         NOT AVBL
SOMBRERO KEY     0000            78      70/  4/  5 1015.3F
LONG KEY         0000            78 81   CALM  /  1 1015.3F
MOLASSES REEF    0000            78 79   CALM  /  1 1014.7F
FOWEY ROCKS      0000            78 78  180/ 11/ 12 1014.8R
Buoy 42080       NOT AVBL

$$



USA.gov is the U.S. government's official web portal to all federal, state and local government web resources and services.